{"data":{"norad_id":65207,"intl_designator":"2025-176K","name":"STARLINK-34901","alt_names":[],"object_type":"PAYLOAD","status":"ACTIVE","operator":null,"country":"US","launch_date":"2025-08-14","launch_site_code":"AFETR","launch_vehicle":null,"mission":null,"orbit_class":"UNKNOWN","rcs_meters":null,"size_class":null,"mass_kg":null,"dimensions":null,"purposes":["comms"],"wikipedia_slug":null,"has_3d_model":false,"image_url":null,"decayed_at":null,"tle_current":{"epoch":"2026-09-20T21:35:49.927488Z","epoch_age_seconds":85733,"freshness":"FRESH","line1":"1 65207U 25176K   26263.89988342  .00012932  00000+0  39324-3 0  9991","line2":"2 65207  53.1593 322.0518 0001106  68.0602 292.0518 15.34398496 63063","mean_motion":15.34398496,"eccentricity":0.0001106,"inclination_deg":53.1593,"raan_deg":322.0518,"arg_perigee_deg":68.0602,"mean_anomaly_deg":292.0518,"bstar":0.00039324,"rev_number":6306,"period_min":93.847850069843,"perigee_km":461.95111299074,"apogee_km":463.46430784068,"semimajor_km":6840.8447104157,"source":"CELESTRAK","updated_at":"2026-09-21T09:00:35.535059Z"}}}